Regional Weather Roundup
Issued by NWS

Home | Current Version | Previous Version | Graphics & Text | Print | Product List | Glossary On
Versions: 1 2 3 4 5 6 7 8 9 10 11 12 13 14 15 16 17 18 19 20 21 22 23 24 25 26 27 28 29 30 31 32 33 34 35 36 37 38 39 40 41 42 43 44 45 46 47 48 49 50
000
ASUS43 KLOT 291800
RWRIL

ILLINOIS REGIONAL WEATHER ROUNDUP
NATIONAL WEATHER SERVICE CHICAGO/ROMEOVILLE IL
100 PM CDT TUE JUL 29 2014

NOTE: "FAIR" INDICATES FEW OR NO CLOUDS BELOW 12,000 FEET WITH NO
SIGNIFICANT WEATHER AND/OR OBSTRUCTIONS TO VISIBILITY.

* THESE STATIONS ARE NOT UNDER NWS QUALITY CONTROL. THEY ALSO MAY NOT
  REPORT WEATHER SUCH AS PRECIPITATION OR FOG.

ILZ001-002-007-009-015-016-024-291900-
NORTHWEST ILLINOIS

CITY           SKY/WX    TMP DP  RH WIND       PRES   REMARKS
MOLINE         NOT AVBL
STERLING*      MOSUNNY   79  59  50 NW10G17   30.07F HX  80
$$

ILZ003-004-008-010-011-017-018-291900-
NORTH CENTRAL ILLINOIS

CITY           SKY/WX    TMP DP  RH WIND       PRES   REMARKS
ROCKFORD       MOSUNNY   78  57  48 N9        30.06F
6HR MIN TEMP:  58; 6HR MAX TEMP:  78;

$$

ILZ005-006-012>014-019>023-291900-
NORTHEAST ILLINOIS

CITY           SKY/WX    TMP DP  RH WIND       PRES   REMARKS
CHICAGO-OHARE  PTSUNNY   78  51  38 NW15G22   30.02F
6HR MIN TEMP:  62; 6HR MAX TEMP:  79;

CHICAGO-MIDWAY MOSUNNY   79  53  40 N12       30.02F
6HR MIN TEMP:  62; 6HR MAX TEMP:  80;

AURORA         SUNNY     78  55  44 NW9       30.04F
6HR MIN TEMP:  55; 6HR MAX TEMP:  78;

WAUKEGAN       MOSUNNY   76  54  46 VRB5      30.01F
6HR MIN TEMP:  61; 6HR MAX TEMP:  76;

DUPAGE AIRPORT SUNNY     78  54  43 N15G23    30.03F
6HR MIN TEMP:  60; 6HR MAX TEMP:  78;

WHEELING       MOSUNNY   78  53  41 NW10G25   30.03F
6HR MIN TEMP:  63; 6HR MAX TEMP:  80;

NORTHERLY ISL    N/A     70  59  68 NE5         N/A
$$

LMZ740>746-291900-
SOUTHERN LAKE MICHIGAN

STATION/POSITION SKY/WX   TEMP    WIND        PRES    VSBY  WAVE
                          AIR SEA DIR/SP/G                  HT/PER
                          (F)     (DEG/KT/KT) (MB)    (MI)  (FT/S)
SOUTHERN BUOY              61 61  300/  6/  6 1017.0F         1
WAUKEGAN HARBOR            70     120/  7/  8   N/A
HARRISON CRIB              67      30/  8/  9   N/A
BURNHAM HARBOR             69      50/  4/ 11   N/A
CALUMET HARBOR             67      50/  9/ 10 1015.6F
MICHIGAN CITY              67     290/  9/ 10   N/A
MICHIGAN CITY 6N           65 68  360/  8/ 10   N/A           1/ 2
ST. JOSEPH                 63 67  300/  8/ 10   N/A           2/ 3
$$

ILZ025>027-034>036-040-047-049-050-058-095>099-291900-
WEST-CENTRAL ILLINOIS

CITY           SKY/WX    TMP DP  RH WIND       PRES   REMARKS
QUINCY         SUNNY     76  54  46 NW9       30.15S
$$

ILZ028>032-037-038-041>044-048-051>054-059>061-291900-
CENTRAL ILLINOIS

CITY           SKY/WX    TMP DP  RH WIND       PRES   REMARKS
DECATUR        MOSUNNY   75  55  49 W12       30.11F
PEORIA         SUNNY     79  55  43 NW10      30.10F
6HR MIN TEMP:  60; 6HR MAX TEMP:  79;

SPRINGFIELD    MOSUNNY   77  55  46 W8        30.12F
6HR MIN TEMP:  54; 6HR MAX TEMP:  77;

TAYLORVILLE    NOT AVBL
$$

ILZ033-039-045-046-055>057-062-063-291900-
EAST-CENTRAL ILLINOIS

CITY           SKY/WX    TMP DP  RH WIND       PRES   REMARKS
CHAMPAIGN      PTSUNNY   73  57  57 W13       30.10S
MATTOON        MOSUNNY   75  55  49 NW10      30.10S
$$

ILZ079-100>102-291900-
SOUTHWEST ILLINOIS

CITY           SKY/WX    TMP DP  RH WIND       PRES   REMARKS
BELLEVILLE     MOSUNNY   77  55  46 NW9       30.13F
CAHOKIA*       PTSUNNY   80  52  37 NW8       30.14F HX  80
$$

ILZ064>066-069>071-074>076-080>082-084>086-088>090-092>094-291900-
SOUTH-CENTRAL ILLINOIS

CITY           SKY/WX    TMP DP  RH WIND       PRES   REMARKS
CARBONDALE     PTSUNNY   78  51  38 NW7       30.14F
6HR MIN TEMP:  56; 6HR MAX TEMP:  78;

MT. VERNON     PTSUNNY   75  52  43 CALM      30.14S
$$

ILZ067-068-072-073-078-083-087-091-291900-
SOUTHEAST ILLINOIS

CITY           SKY/WX    TMP DP  RH WIND       PRES   REMARKS
$$

ABBREVIATIONS USED IN REMARKS
   TC - TEMPERATURE IN CELSIUS
  WCI - WIND CHILL INDEX
   HX - HEAT INDEX
  VSB - VISIBILITY
$$



USA.gov is the U.S. government's official web portal to all federal, state and local government web resources and services.